TimeEDT,TemperatureF,Dew PointF,Humidity,Sea Level PressureIn,VisibilityMPH,Wind Direction,Wind SpeedMPH,Gust SpeedMPH,PrecipitationIn,Events,Conditions,WindDirDegrees,DateUTC
12:15 AM,44.6,34.3,67,30.12,10.0,Calm,Calm,-,N/A,,Clear,0,2013-10-21 04:15:00
12:35 AM,45.5,33.8,64,30.12,10.0,Calm,Calm,-,N/A,,Clear,0,2013-10-21 04:35:00
12:55 AM,45.0,33.8,65,30.11,10.0,Calm,Calm,-,N/A,,Clear,0,2013-10-21 04:55:00
1:15 AM,42.3,34.3,74,30.11,10.0,Calm,Calm,-,N/A,,Clear,0,2013-10-21 05:15:00
1:35 AM,41.4,34.2,76,30.11,10.0,Calm,Calm,-,N/A,,Clear,0,2013-10-21 05:35:00
1:55 AM,40.5,34.5,79,30.11,10.0,Calm,Calm,-,N/A,,Clear,0,2013-10-21 05:55:00
2:15 AM,38.8,35.6,88,30.11,10.0,Calm,Calm,-,N/A,,Clear,0,2013-10-21 06:15:00
2:35 AM,40.1,34.2,79,30.11,10.0,Calm,Calm,-,N/A,,Clear,0,2013-10-21 06:35:00
2:55 AM,42.4,34.0,72,30.11,10.0,Calm,Calm,-,N/A,,Clear,0,2013-10-21 06:55:00
3:15 AM,39.2,34.0,82,30.10,10.0,Calm,Calm,-,N/A,,Clear,0,2013-10-21 07:15:00
3:35 AM,36.9,34.5,91,30.11,10.0,Calm,Calm,-,N/A,,Clear,0,2013-10-21 07:35:00
3:55 AM,37.8,35.4,91,30.11,10.0,Calm,Calm,-,N/A,,Clear,0,2013-10-21 07:55:00
4:15 AM,37.2,34.7,91,30.11,10.0,Calm,Calm,-,N/A,,Clear,0,2013-10-21 08:15:00
4:35 AM,40.1,35.8,85,30.11,10.0,Calm,Calm,-,N/A,,Clear,0,2013-10-21 08:35:00
4:55 AM,39.2,36.3,89,30.11,10.0,Calm,Calm,-,N/A,,Clear,0,2013-10-21 08:55:00
5:15 AM,40.6,34.9,80,30.12,10.0,Calm,Calm,-,N/A,,Clear,0,2013-10-21 09:15:00
5:35 AM,41.2,34.7,78,30.12,10.0,Calm,Calm,-,N/A,,Clear,0,2013-10-21 09:35:00
5:55 AM,41.0,34.3,77,30.13,10.0,Calm,Calm,-,N/A,,Clear,0,2013-10-21 09:55:00
6:15 AM,42.1,34.7,75,30.13,10.0,Calm,Calm,-,N/A,,Clear,0,2013-10-21 10:15:00
6:35 AM,39.7,33.8,79,30.13,10.0,South,3.5,-,N/A,,Clear,180,2013-10-21 10:35:00
6:55 AM,36.5,34.5,93,30.13,10.0,Calm,Calm,-,N/A,,Clear,0,2013-10-21 10:55:00
7:15 AM,36.0,34.0,93,30.13,10.0,Calm,Calm,-,N/A,,Clear,0,2013-10-21 11:15:00
7:35 AM,38.1,34.7,87,30.13,10.0,SSW,3.5,-,N/A,,Clear,200,2013-10-21 11:35:00
7:55 AM,37.4,34.3,89,30.13,10.0,Calm,Calm,-,N/A,,Clear,0,2013-10-21 11:55:00
8:15 AM,36.1,34.0,92,30.13,10.0,Calm,Calm,-,N/A,,Clear,0,2013-10-21 12:15:00
8:35 AM,38.1,36.0,92,30.14,10.0,Calm,Calm,-,N/A,,Clear,0,2013-10-21 12:35:00
8:55 AM,40.8,36.9,86,30.14,10.0,Calm,Calm,-,N/A,,Clear,0,2013-10-21 12:55:00
9:15 AM,42.3,38.7,87,30.14,10.0,Calm,Calm,-,N/A,,Clear,0,2013-10-21 13:15:00
9:35 AM,44.4,39.6,83,30.15,10.0,Calm,Calm,-,N/A,,Clear,0,2013-10-21 13:35:00
9:55 AM,46.0,38.5,75,30.15,10.0,Calm,Calm,-,N/A,,Clear,0,2013-10-21 13:55:00
10:15 AM,47.5,39.7,75,30.14,10.0,Calm,Calm,-,N/A,,Clear,0,2013-10-21 14:15:00
10:35 AM,48.4,39.2,71,30.14,10.0,Calm,Calm,-,N/A,,Clear,0,2013-10-21 14:35:00
10:55 AM,50.4,41.0,70,30.14,10.0,ESE,4.6,-,N/A,,Clear,110,2013-10-21 14:55:00
11:15 AM,51.8,41.5,68,30.14,10.0,Calm,Calm,-,N/A,,Clear,0,2013-10-21 15:15:00
11:35 AM,54.1,41.4,62,30.13,10.0,Calm,Calm,-,N/A,,Clear,0,2013-10-21 15:35:00
11:55 AM,54.9,40.5,58,30.13,10.0,Calm,Calm,-,N/A,,Clear,0,2013-10-21 15:55:00
12:15 PM,56.1,41.0,57,30.13,10.0,ESE,5.8,-,N/A,,Clear,120,2013-10-21 16:15:00
12:35 PM,56.3,40.6,56,30.13,10.0,East,5.8,-,N/A,,Clear,100,2013-10-21 16:35:00
12:55 PM,58.3,42.8,56,30.12,10.0,ESE,4.6,-,N/A,,Clear,120,2013-10-21 16:55:00
1:15 PM,57.4,43.3,59,30.10,10.0,SE,5.8,-,N/A,,Clear,130,2013-10-21 17:15:00
1:55 PM,58.8,43.7,57,30.09,10.0,Calm,Calm,-,N/A,,Clear,0,2013-10-21 17:55:00
2:15 PM,58.5,43.5,58,30.08,10.0,SE,5.8,-,N/A,,Clear,130,2013-10-21 18:15:00
2:35 PM,59.2,43.9,57,30.07,10.0,SE,3.5,-,N/A,,Clear,140,2013-10-21 18:35:00
2:55 PM,58.6,43.5,57,30.07,10.0,ESE,5.8,-,N/A,,Clear,120,2013-10-21 18:55:00
3:15 PM,58.5,43.5,58,30.06,10.0,ESE,8.1,-,N/A,,Scattered Clouds,120,2013-10-21 19:15:00
3:35 PM,58.1,43.9,59,30.06,10.0,ESE,8.1,-,N/A,,Scattered Clouds,120,2013-10-21 19:35:00
3:55 PM,57.9,43.9,60,30.06,10.0,ESE,8.1,-,N/A,,Clear,120,2013-10-21 19:55:00
4:15 PM,57.6,43.7,60,30.05,10.0,SE,5.8,-,N/A,,Scattered Clouds,140,2013-10-21 20:15:00
4:35 PM,56.7,43.9,62,30.05,10.0,SE,4.6,-,N/A,,Scattered Clouds,130,2013-10-21 20:35:00
4:55 PM,57.0,44.2,62,30.05,10.0,SE,5.8,-,N/A,,Scattered Clouds,140,2013-10-21 20:55:00
5:15 PM,56.1,44.6,65,30.06,10.0,SE,5.8,-,N/A,,Mostly Cloudy,130,2013-10-21 21:15:00
5:35 PM,55.4,44.6,67,30.04,10.0,SE,3.5,-,N/A,,Scattered Clouds,140,2013-10-21 21:35:00
5:55 PM,54.9,44.6,68,30.05,10.0,SE,4.6,-,N/A,,Mostly Cloudy,130,2013-10-21 21:55:00
6:15 PM,54.3,45.0,71,30.06,10.0,SE,3.5,-,N/A,,Overcast,140,2013-10-21 22:15:00
6:35 PM,53.6,44.8,72,30.06,10.0,Calm,Calm,-,N/A,,Mostly Cloudy,0,2013-10-21 22:35:00
6:55 PM,52.9,44.6,73,30.06,10.0,SSE,3.5,-,N/A,,Scattered Clouds,150,2013-10-21 22:55:00
7:15 PM,51.8,44.6,76,30.06,10.0,Calm,Calm,-,N/A,,Clear,0,2013-10-21 23:15:00
7:35 PM,51.3,44.4,77,30.06,10.0,Calm,Calm,-,N/A,,Clear,0,2013-10-21 23:35:00
7:55 PM,50.4,44.2,80,30.06,10.0,Calm,Calm,-,N/A,,Clear,0,2013-10-21 23:55:00
8:15 PM,51.8,44.1,75,30.06,10.0,Calm,Calm,-,N/A,,Clear,0,2013-10-22 00:15:00
8:35 PM,51.1,44.1,77,30.06,10.0,Calm,Calm,-,N/A,,Clear,0,2013-10-22 00:35:00
8:55 PM,51.8,44.2,75,30.05,10.0,Calm,Calm,-,N/A,,Clear,0,2013-10-22 00:55:00
9:15 PM,51.1,44.4,78,30.04,10.0,Calm,Calm,-,N/A,,Clear,0,2013-10-22 01:15:00
9:35 PM,50.2,44.2,80,30.04,10.0,Calm,Calm,-,N/A,,Clear,0,2013-10-22 01:35:00
9:55 PM,50.4,44.6,81,30.05,10.0,Calm,Calm,-,N/A,,Clear,0,2013-10-22 01:55:00
10:15 PM,50.4,44.6,81,30.05,10.0,Calm,Calm,-,N/A,,Clear,0,2013-10-22 02:15:00
10:35 PM,50.4,44.6,81,30.04,10.0,Calm,Calm,-,N/A,,Clear,0,2013-10-22 02:35:00
10:55 PM,51.3,44.6,78,30.04,10.0,Calm,Calm,-,N/A,,Clear,0,2013-10-22 02:55:00
11:15 PM,49.1,45.1,86,30.04,10.0,Calm,Calm,-,N/A,,Clear,0,2013-10-22 03:15:00
11:35 PM,49.5,45.1,85,30.02,10.0,West,3.5,-,N/A,,Clear,260,2013-10-22 03:35:00
11:55 PM,49.6,45.0,84,30.03,10.0,WSW,3.5,-,N/A,,Clear,250,2013-10-22 03:55:00